Starlink 32413

operational
NORAD ID: 61590 Int'l Des: 2024-187 Owner: SPXS Country: US Constellation: starlink
LEOCIRCULAR

Über Starlink 32413

Beschreibung wird geladen...

Live-Position

3D-Globus wird geladen...

Nächste Überflüge

Höhenverlauf

Altitude vs Time

uPlot chart will show altitude changes over time

Zweizeiliger Elementsatz

1 61590U 24187S 25306.22475499 .00000974 00000-0 45020-4 0 9996
2 61590 53.1611 297.4084 0001434 86.2670 273.8494 15.30188970 59569
Epoch: 2. Nov. 2025 • Age: 35 hours

Aktueller Status

Höhe 479.6 km
Geschwindigkeit 7.63 km/s
Subsatellitenpunkt 47.81°N, 126.64°E
Startdatum 18. Okt. 2024
Alter 1 years
Typ internet

Technische Details

Klassifizierung Payload
Masse 730.00 kg
Trockenmasse 700.00 kg
Gesamtmasse 730.00 kg
Länge 0.30 m
Durchmesser 4.10 m
Spannweite 29.00 m
Form Box + pan
Hersteller SPXS
Bus-Typ Starlink V2M
Phasenstatus In Orbit
Besitzer/Staat SPXS/US

Große Konstellationen

Loading constellations...